Rochester, Indiana, United States (46975)
Lat: 41.06N, Lon: 86.22W
Wx Zone: INZ015
Local Info
Past Weather Observations for Today

NOTE: This archive is for the closest National Weather Service station to Rochester. Information may differ from the station used for current weather conditions.

Click here for Long-term Archive

Time Weather Temperature Dewpoint Humidity Pressure Winds Precip Visibility
20:35
Partly Cloudy
72°F / 22°C 70°F / 21°C 94% 30.06 in
(1018 mb)
Calm - 10SM
20:15
Mostly Cloudy
72°F / 22°C 70°F / 21°C 94% 30.06 in
(1018 mb)
Calm - 10SM
19:55
Mostly Cloudy
73°F / 23°C 70°F / 21°C 89% 30.06 in
(1018 mb)
Calm - 10SM
19:35
Partly Cloudy
75°F / 24°C 70°F / 21°C 83% 30.06 in
(1018 mb)
Calm - 10SM
19:15
Partly Cloudy
77°F / 25°C 70°F / 21°C 79% 30.06 in
(1018 mb)
Calm - 10SM
18:35
Clear
81°F / 27°C 68°F / 20°C 66% 30.04 in
(1017 mb)
Calm - 10SM
18:15
Partly Cloudy
82°F / 28°C 68°F / 20°C 62% 30.04 in
(1017 mb)
SSW 3.5 mph
(SSW 6 kph)
- 10SM
17:55
Clear
82°F / 28°C 68°F / 20°C 62% 30.04 in
(1017 mb)
W 3.5 mph
(W 6 kph)
- 10SM
17:35
Partly Cloudy
84°F / 29°C 68°F / 20°C 58% 30.04 in
(1017 mb)
W 5.8 mph
(W 9 kph)
- 10SM
17:15
Partly Cloudy
84°F / 29°C 68°F / 20°C 58% 30.04 in
(1017 mb)
W 3.5 mph
(W 6 kph)
- 10SM
16:55
Partly Cloudy
86°F / 30°C 68°F / 20°C 55% 30.04 in
(1017 mb)
Calm - 10SM
16:35
Clear
86°F / 30°C 68°F / 20°C 55% 30.04 in
(1017 mb)
SSW 5.8 mph
(SSW 9 kph)
- 10SM
16:15
Clear
86°F / 30°C 66°F / 19°C 52% 30.04 in
(1017 mb)
SSW 5.8 mph
(SSW 9 kph)
- 10SM
15:55
Partly Cloudy
84°F / 29°C 66°F / 19°C 55% 30.04 in
(1017 mb)
Calm - 10SM
15:35
Partly Cloudy
86°F / 30°C 68°F / 20°C 55% 30.06 in
(1018 mb)
SSW 5.8 mph
(SSW 9 kph)
- 10SM
15:15
Partly Cloudy
84°F / 29°C 68°F / 20°C 58% 30.06 in
(1018 mb)
W 8.1 mph
(W 13 kph)
- 10SM
14:55
Clear
86°F / 30°C 68°F / 20°C 55% 30.06 in
(1018 mb)
W 5.8 mph
(W 9 kph)
- 10SM
14:35
Partly Cloudy
82°F / 28°C 68°F / 20°C 62% 30.06 in
(1018 mb)
SSW 8.1 mph
(SSW 13 kph)
- 10SM
14:15
Mostly Cloudy
82°F / 28°C 70°F / 21°C 66% 30.06 in
(1018 mb)
W 5.8 mph
(W 9 kph)
- 10SM
13:55
Mostly Cloudy
84°F / 29°C 68°F / 20°C 58% 30.09 in
(1019 mb)
SSW 4.6 mph
(SSW 7 kph)
- 10SM
13:35
Partly Cloudy
82°F / 28°C 68°F / 20°C 62% 30.09 in
(1019 mb)
SW 3.5 mph
(SW 6 kph)
- 10SM
13:15
Partly Cloudy
82°F / 28°C 68°F / 20°C 62% 30.09 in
(1019 mb)
SW 3.5 mph
(SW 6 kph)
- 10SM
12:55
Partly Cloudy
81°F / 27°C 70°F / 21°C 70% 30.09 in
(1019 mb)
Calm - 10SM
12:35
Mostly Cloudy
81°F / 27°C 68°F / 20°C 66% 30.09 in
(1019 mb)
NW 3.5 mph
(NW 6 kph)
- 10SM
12:15
Mostly Cloudy
82°F / 28°C 70°F / 21°C 66% 30.09 in
(1019 mb)
Calm - 10SM
11:55
Partly Cloudy
81°F / 27°C 68°F / 20°C 66% 30.12 in
(1020 mb)
SSW 3.5 mph
(SSW 6 kph)
- 10SM
11:35
Partly Cloudy
81°F / 27°C 70°F / 21°C 70% 30.12 in
(1020 mb)
SSW 3.5 mph
(SSW 6 kph)
- 10SM
11:15
Partly Cloudy
81°F / 27°C 70°F / 21°C 70% 30.12 in
(1020 mb)
SSW 5.8 mph
(SSW 9 kph)
- 10SM
10:55
Clear
79°F / 26°C 70°F / 21°C 74% 30.12 in
(1020 mb)
SW 3.5 mph
(SW 6 kph)
- 10SM
10:35
Clear
77°F / 25°C 70°F / 21°C 79% 30.12 in
(1020 mb)
SSW 4.6 mph
(SSW 7 kph)
- 10SM
10:15
Clear
75°F / 24°C 70°F / 21°C 83% 30.12 in
(1020 mb)
SSW 5.8 mph
(SSW 9 kph)
- 10SM
09:55
Clear
73°F / 23°C 70°F / 21°C 89% 30.12 in
(1020 mb)
SSW 5.8 mph
(SSW 9 kph)
- 7SM
09:35
Partly Cloudy
72°F / 22°C 70°F / 21°C 94% 30.12 in
(1020 mb)
W 4.6 mph
(W 7 kph)
- 7SM
09:15
Mostly Cloudy
Fog And Mist
70°F / 21°C 68°F / 20°C 94% 30.12 in
(1020 mb)
SSW 3.5 mph
(SSW 6 kph)
- 5SM
08:55
Mostly Cloudy
Fog And Mist
70°F / 21°C 68°F / 20°C 94% 30.12 in
(1020 mb)
W 4.6 mph
(W 7 kph)
- 5SM
08:35
Clear
Fog And Mist
70°F / 21°C 70°F / 21°C 100% 30.12 in
(1020 mb)
Calm - 5SM
08:15
Clear
Fog And Mist
68°F / 20°C 68°F / 20°C 100% 30.09 in
(1019 mb)
Calm - 4SM
07:55
Clear
Fog And Mist
68°F / 20°C 68°F / 20°C 100% 30.09 in
(1019 mb)
Calm - 3SM
07:35
Clear
Fog And Mist
66°F / 19°C 66°F / 19°C 100% 30.09 in
(1019 mb)
Calm - 2SM
07:15
Obscured
Fog And Mist
64°F / 18°C 64°F / 18°C 100% 30.09 in
(1019 mb)
Calm - 1 1/2SM
06:55
Obscured
Fog And Mist
63°F / 17°C 63°F / 17°C 100% 30.09 in
(1019 mb)
Calm - 1 1/2SM
06:35
Obscured
Fog And Mist
63°F / 17°C 63°F / 17°C 100% 30.09 in
(1019 mb)
Calm - 1SM
06:15
Overcast
Fog And Mist
63°F / 17°C 63°F / 17°C 100% 30.06 in
(1018 mb)
Calm - 1SM
05:55
Overcast
Fog
63°F / 17°C 63°F / 17°C 100% 30.06 in
(1018 mb)
Calm - 1/4SM
05:35
Overcast
Fog
63°F / 17°C 63°F / 17°C 100% 30.06 in
(1018 mb)
Calm - 1/4SM
05:15
Overcast
Fog
63°F / 17°C 63°F / 17°C 100% 30.06 in
(1018 mb)
Calm - M1/4SM
04:55
Overcast
Fog
63°F / 17°C 63°F / 17°C 100% 30.06 in
(1018 mb)
Calm - M1/4SM
04:35
Overcast
Fog
63°F / 17°C 63°F / 17°C 100% 30.06 in
(1018 mb)
Calm - 1/4SM
04:15
Overcast
Fog
63°F / 17°C 63°F / 17°C 100% 30.06 in
(1018 mb)
Calm - 1/4SM
03:55
Overcast
Fog
61°F / 16°C 61°F / 16°C 100% 30.06 in
(1018 mb)
Calm - M1/4SM
03:35
Overcast
Fog
61°F / 16°C 61°F / 16°C 100% 30.06 in
(1018 mb)
Calm - 1/4SM
03:15
Overcast
Fog
61°F / 16°C 61°F / 16°C 100% 30.06 in
(1018 mb)
Calm - 1/4SM
02:55
Overcast
Fog
63°F / 17°C 63°F / 17°C 100% 30.06 in
(1018 mb)
Calm - 1/4SM
02:35
Overcast
Fog
63°F / 17°C 63°F / 17°C 100% 30.06 in
(1018 mb)
Calm - 1/4SM
02:15
Overcast
Fog
63°F / 17°C 63°F / 17°C 100% 30.06 in
(1018 mb)
Calm - M1/4SM
01:55
Overcast
Fog
63°F / 17°C 63°F / 17°C 100% 30.06 in
(1018 mb)
Calm - M1/4SM
01:35
Overcast
Fog
63°F / 17°C 63°F / 17°C 100% 30.06 in
(1018 mb)
Calm - 1/4SM
01:15
Overcast
Fog
63°F / 17°C 63°F / 17°C 100% 30.06 in
(1018 mb)
Calm - 1/4SM
00:55
Overcast
Fog
63°F / 17°C 63°F / 17°C 100% 30.06 in
(1018 mb)
Calm - 1/4SM
00:35
Overcast
Fog
63°F / 17°C 63°F / 17°C 100% 30.06 in
(1018 mb)
Calm - 1/4SM
00:15
Overcast
Fog
63°F / 17°C 63°F / 17°C 100% 30.06 in
(1018 mb)
Calm - M1/4SM
Time Weather Temperature Dewpoint Humidity Pressure Winds Precip Visibility


Weather for websites

WeatherForYou.com, LLC is not responsible for any damages or problems caused by this service. Current weather conditions are obtained from the closest station including government and personal stations which may have varying degrees of accuracy. Weather forecasts are derived from the NOAA NDFD. Like all things, this site belongs to Jesus Christ... He just trusts us to maintain it. If you have any questions or comments email webmaster@weatherforyou.com

Copyright © 2015, WeatherForYou.com LLC. All rights reserved.